Theta_e
360 359 358 349 327 322 313 318 324 321 321 328 330 327 323 325 322 313 340 345 347 349 358 358 364 365 363 364 364 364 362 363 365 365 365 366 365 365 365 364 364 361 361 361 363 363 363 363 362
358 357 353 340 319 310 313 321 320 321 325 328 328 328 325 322 332 333 336 347 349 352 355 358 365 365 364 364 365 365 364 363 363 365 365 364 364 365 365 364 363 361 362 361 360 362 363 363 361
360 358 339 328 318 309 313 322 322 323 328 327 325 330 327 326 332 334 342 347 349 352 356 360 365 364 363 363 364 365 363 363 363 364 364 364 364 364 364 364 364 363 362 361 360 359 359 359 358
353 339 337 323 317 315 320 323 327 326 326 328 327 321 329 337 333 341 346 347 348 349 355 362 364 362 363 363 363 364 363 362 363 362 363 363 363 364 363 362 360 360 361 361 361 361 360 360 357
342 332 319 316 316 321 326 329 329 323 324 325 327 323 325 336 342 344 344 349 348 353 356 357 364 363 363 363 363 362 363 362 363 363 363 364 364 363 362 362 359 358 358 357 357 358 358 359 359
330 329 315 312 315 321 327 331 328 325 327 327 327 326 327 338 339 342 346 348 351 353 355 356 362 364 363 362 362 362 362 363 363 362 363 363 363 362 361 360 360 360 360 360 357 355 354 355 357
326 323 317 319 317 322 328 333 327 328 328 327 332 322 328 333 338 344 347 348 349 352 352 353 354 357 361 362 362 363 362 362 361 361 362 362 361 363 362 361 361 360 359 359 358 357 355 354 354
332 327 321 320 316 320 330 332 331 331 330 337 334 323 323 334 341 345 346 347 347 349 352 350 350 353 355 356 363 362 362 362 361 362 361 360 360 359 359 362 361 359 358 357 357 357 356 355 355
336 319 316 319 318 323 332 329 334 336 332 334 336 333 335 340 343 343 342 343 346 348 350 350 352 352 351 353 357 361 362 361 361 359 359 359 350 350 354 357 360 359 358 359 359 359 359 357 358
327 318 320 325 325 323 330 330 331 331 330 330 332 336 339 341 342 340 338 339 341 342 345 348 351 350 349 356 353 350 351 351 350 351 350 351 350 349 354 356 359 360 360 359 361 360 360 360 348
326 319 326 329 329 330 327 329 332 329 326 329 329 332 337 339 339 338 338 339 339 341 343 346 348 347 348 352 351 351 350 350 350 350 349 350 352 349 354 354 353 353 356 352 354 356 355 352 349
323 328 328 332 332 331 328 331 330 331 330 335 335 335 335 336 336 335 335 337 336 338 340 345 347 348 349 348 351 351 351 350 349 350 349 351 350 352 350 350 351 350 347 344 346 349 351 353 350
328 329 331 332 334 332 331 329 330 332 336 337 336 335 333 333 335 335 336 337 337 337 339 343 345 346 347 349 349 350 352 352 351 349 351 351 350 349 346 350 351 349 345 344 343 347 349 351 350
329 330 331 333 332 331 327 329 331 333 337 335 335 333 333 333 335 336 335 336 336 337 339 341 345 346 349 350 351 351 351 351 351 350 350 350 351 348 349 346 348 348 347 347 349 347 348 349 348
326 322 327 329 329 321 328 323 325 333 335 332 333 334 334 334 335 335 336 336 337 338 340 342 344 347 348 349 349 347 350 349 348 349 349 352 351 350 349 350 350 347 348 347 349 348 348 346 347
323 326 316 328 327 323 325 313 326 330 331 330 332 333 334 334 335 336 338 338 338 339 338 345 349 348 345 347 345 345 347 346 348 350 351 352 353 352 351 351 351 351 349 349 346 346 344 343 343
317 312 313 318 324 322 322 317 327 329 327 325 327 331 334 335 337 336 337 338 339 339 340 345 347 347 344 345 344 344 346 347 349 354 351 346 344 349 348 353 351 352 350 349 348 344 343 342 345
311 312 314 318 320 321 320 320 325 326 327 325 326 325 325 325 333 330 335 337 339 342 343 343 344 344 343 345 343 344 345 347 349 348 349 351 351 351 348 353 353 351 348 348 347 345 345 343 344
313 313 312 319 322 320 317 319 322 328 328 326 324 323 322 323 327 329 334 339 343 343 339 343 341 341 344 343 342 344 343 345 344 349 351 352 349 350 353 353 352 351 349 348 348 345 344 344 345
314 313 315 319 323 319 317 317 323 325 323 329 324 323 323 322 325 327 332 337 339 339 337 341 342 344 344 343 341 345 345 344 345 349 351 352 351 353 355 353 350 350 350 349 347 346 343 344 345
308 308 316 315 318 319 319 316 321 328 331 331 330 327 325 325 325 326 331 335 338 338 338 342 343 345 343 343 343 347 348 347 346 349 349 353 356 356 354 352 353 350 349 349 348 347 342 341 344
303 313 321 317 311 306 317 303 313 322 322 322 327 326 328 325 327 328 331 334 336 338 340 344 343 346 344 345 345 346 341 340 342 346 350 352 355 356 357 355 352 351 350 350 349 350 348 343 341
307 312 318 316 308 305 311 302 306 319 320 322 326 331 332 328 328 328 332 336 337 339 341 345 343 345 346 346 349 345 340 341 344 345 346 352 354 353 356 354 353 348 348 351 351 350 348 349 345
312 305 303 308 305 298 305 301 305 311 316 321 326 330 333 334 329 331 333 337 337 339 341 346 344 343 343 345 348 349 347 343 346 350 349 352 351 351 355 352 349 348 351 346 349 346 347 345 345
305 298 293 293 296 296 301 302 303 317 324 326 327 329 332 333 331 331 332 335 336 338 340 345 346 343 345 346 346 349 350 346 344 347 351 351 351 350 352 352 350 347 350 349 349 344 347 342 344
302 299 293 288 294 298 307 302 308 319 326 329 327 328 331 332 332 329 333 335 337 339 341 342 347 345 346 348 347 349 349 353 349 350 353 353 353 353 351 355 352 352 348 351 347 343 344 343 338
300 297 301 301 300 299 303 308 316 321 323 327 328 331 331 330 331 331 332 335 338 340 342 344 344 347 349 351 349 350 351 351 355 352 350 353 354 356 352 356 355 356 349 349 347 345 346 344 340
301 302 295 294 294 292 298 303 304 314 318 322 324 329 332 332 334 333 330 334 339 342 344 346 346 346 350 352 354 352 353 352 353 352 349 350 351 355 353 355 358 357 353 350 349 348 347 340 337
298 297 294 295 298 293 292 300 317 318 322 323 325 325 331 325 330 333 334 333 340 341 343 346 347 347 349 350 351 355 355 354 353 353 352 350 350 356 355 356 358 357 355 353 351 351 350 342 340
299 297 294 291 297 299 299 303 323 321 326 325 326 329 329 326 325 330 336 331 336 339 341 345 348 349 352 354 353 353 357 356 354 353 354 357 354 352 358 357 355 355 357 356 351 352 354 345 340
Wind_Speed
10 6 2 2 2 1 2 5 9 11 4 2 8 6 9 5 0 3 8 8 7 5 9 11 12 14 15 15 15 16 15 15 15 16 16 17 16 17 15 14 15 15 15 12 13 14 14 15 15
4 5 2 2 2 5 1 5 6 7 9 15 11 11 7 5 5 11 6 6 8 8 6 10 13 14 14 14 14 15 15 15 14 15 15 15 15 14 14 13 13 12 12 12 10 11 13 13 13
5 5 2 2 1 5 6 6 17 14 10 5 8 10 5 4 10 10 9 7 4 6 7 11 14 13 14 14 14 15 14 14 13 14 13 13 14 13 13 11 11 10 10 11 10 9 10 11 11
1 2 1 0 2 5 7 14 17 12 9 10 13 10 5 9 11 7 14 9 7 6 5 13 15 15 15 14 13 13 14 13 13 13 13 12 10 11 11 9 9 9 9 8 8 7 7 9 9
3 3 3 3 5 10 7 17 15 14 7 15 10 7 5 3 13 15 11 10 8 8 7 9 12 13 14 14 13 12 13 13 12 11 12 10 10 10 9 8 6 7 7 6 5 5 4 7 8
3 1 2 4 4 7 11 16 18 20 16 18 16 11 4 7 13 12 10 7 10 11 8 8 12 12 13 13 13 11 11 11 11 10 10 9 9 9 7 7 6 6 6 5 4 3 2 3 6
4 3 2 1 1 16 20 13 17 20 17 10 12 10 5 12 12 9 8 9 11 10 9 6 5 9 12 12 12 12 11 9 9 9 9 8 7 7 6 6 6 5 5 4 4 3 1 1 2
4 2 3 3 8 2 18 10 19 21 10 17 13 6 8 13 15 11 8 11 11 10 8 6 5 5 5 6 12 11 11 10 9 8 7 6 6 5 5 4 5 5 5 5 4 4 4 2 2
3 4 2 3 3 6 20 22 6 5 19 10 6 11 15 19 17 12 10 8 8 8 8 6 6 6 6 5 7 10 11 10 9 7 7 5 2 2 4 5 8 8 7 8 7 6 5 4 2
6 1 4 3 3 5 15 16 15 13 13 14 18 15 16 20 17 17 12 12 12 11 10 9 7 6 6 6 4 5 4 4 4 4 5 3 4 5 6 7 9 11 10 9 8 8 7 5 2
3 5 4 7 8 3 10 17 12 19 13 23 23 22 21 22 18 17 16 16 17 15 11 11 9 7 6 5 3 2 3 3 3 5 5 4 3 4 2 3 1 2 4 2 4 4 3 3 3
4 11 13 6 6 4 4 9 18 13 13 19 20 21 18 23 20 18 17 15 13 14 13 12 11 9 8 3 4 4 3 3 3 5 6 4 3 3 3 2 2 2 1 2 2 3 3 3 4
9 14 7 11 2 4 6 7 14 10 21 20 20 20 18 20 21 17 17 15 14 15 14 14 11 9 8 6 4 4 4 5 6 4 3 4 3 3 3 2 3 4 4 2 4 1 3 5 4
3 12 18 7 12 4 12 16 11 16 18 20 21 20 17 19 18 15 14 15 13 13 13 14 14 10 8 6 5 5 4 7 4 4 4 6 3 4 4 3 3 4 3 3 3 2 3 4 3
5 7 15 2 4 4 5 9 15 21 20 20 19 19 19 19 16 17 15 16 16 13 13 13 13 10 8 7 7 3 6 6 6 4 4 6 4 3 6 5 4 4 5 4 3 3 3 3 3
4 7 10 6 5 5 7 3 15 19 22 18 16 15 16 16 16 17 16 17 16 12 12 10 11 10 8 7 6 5 3 4 3 4 5 6 6 5 5 4 4 4 3 3 3 3 4 3 3
3 5 4 11 9 4 5 5 2 11 14 14 16 15 15 15 16 13 13 18 16 13 12 13 12 12 11 7 4 4 4 3 5 4 4 5 7 6 2 3 4 2 3 3 4 2 2 3 2
3 8 1 4 5 8 13 4 3 4 4 13 12 9 9 8 15 11 16 16 15 14 15 11 9 8 8 5 3 1 2 2 3 3 4 4 2 3 3 2 4 4 4 3 3 3 2 2 2
3 6 12 4 12 5 13 10 4 3 3 9 11 10 9 9 8 6 11 15 16 15 11 12 9 7 6 2 3 1 2 2 2 3 6 6 4 3 4 2 5 4 4 4 5 3 4 2 3
8 7 4 8 3 4 8 5 9 4 4 7 12 13 13 8 8 7 10 14 15 15 12 12 12 11 7 4 3 3 3 3 3 5 5 4 4 4 4 5 5 5 3 4 4 3 3 2 4
5 10 9 9 3 5 5 7 15 6 6 11 8 8 13 15 16 9 11 15 14 15 13 13 14 13 9 8 3 1 2 1 2 2 2 5 6 6 6 6 5 5 3 4 3 3 4 3 3
6 9 16 18 8 4 2 1 7 6 23 26 22 6 7 13 16 14 13 15 15 14 12 11 14 13 10 8 5 4 4 3 3 3 3 4 7 6 5 6 5 5 4 4 3 3 2 3 3
10 13 22 20 5 6 4 3 5 15 15 22 19 10 10 12 18 17 17 19 17 15 13 12 12 11 10 8 7 5 4 4 2 1 5 5 4 5 6 6 6 5 4 4 5 4 4 3 2
2 5 6 6 3 1 5 4 2 3 2 2 6 10 7 2 16 18 16 18 16 13 13 12 14 12 8 8 7 7 7 5 3 2 4 4 2 3 5 6 6 5 5 5 5 4 4 3 2
10 9 5 5 5 5 3 5 1 2 1 3 9 4 10 2 5 12 15 17 16 16 15 13 13 11 8 8 8 8 8 6 5 4 4 4 3 3 6 5 5 4 4 5 4 4 4 3 2
4 8 6 2 4 4 5 6 6 6 3 2 9 13 10 9 6 7 16 19 18 18 16 15 14 12 11 9 10 8 7 4 4 4 4 4 4 4 6 6 6 6 5 5 5 3 2 2 1
3 2 8 9 3 3 4 2 7 11 10 8 5 3 5 6 5 6 11 16 19 18 18 18 16 13 13 13 9 8 7 7 6 7 5 4 4 4 7 7 6 5 5 6 5 3 3 2 3
5 4 4 4 5 4 3 3 5 12 21 24 20 2 3 3 3 2 9 13 18 18 18 17 16 17 15 13 10 9 9 8 7 6 7 6 6 4 7 8 7 6 6 7 6 4 3 5 4
3 4 7 7 5 6 4 3 6 7 15 14 14 15 8 10 7 3 3 10 19 18 17 17 14 14 13 13 11 9 9 8 7 7 6 7 5 6 7 8 8 7 7 7 6 6 5 7 5
6 4 6 6 3 3 6 3 7 9 18 13 14 13 7 10 10 2 5 4 9 17 16 18 16 15 15 15 13 13 11 9 9 9 8 7 7 7 7 7 7 8 7 7 6 6 7 7 7
Wind_Direction
173 166 175 244 256 107 81 110 134 111 89 2 111 146 126 47 67 143 138 158 148 153 133 130 125 116 110 104 104 100 98 100 99 98 97 99 100 101 100 103 104 98 99 102 110 111 113 112 111
164 184 223 257 81 104 59 129 110 96 127 109 89 102 57 52 79 111 107 179 154 147 138 131 132 119 115 108 106 101 100 101 101 103 103 106 104 98 105 106 107 104 95 98 108 108 110 105 108
154 296 336 347 203 165 148 167 123 125 145 110 119 59 73 95 115 137 124 152 132 121 134 135 130 125 121 112 108 108 107 109 110 109 111 109 105 109 110 107 110 109 106 99 102 100 101 105 105
21 6 322 271 281 1 124 145 127 112 76 75 113 70 87 115 138 140 145 154 144 131 136 135 134 131 125 119 115 116 111 114 117 122 118 114 117 112 105 110 106 106 102 106 113 112 110 108 108
57 28 356 3 86 84 75 122 115 97 74 91 110 93 80 175 111 126 143 149 137 122 139 134 131 134 132 130 125 122 120 125 122 122 123 125 126 120 119 112 105 107 109 112 114 107 92 94 95
50 174 61 8 93 100 132 131 103 103 101 99 92 109 105 110 132 153 155 160 140 134 129 139 142 143 138 139 133 133 133 129 129 126 131 133 141 133 137 141 140 144 135 134 137 127 80 60 80
106 340 27 251 150 111 129 129 120 115 123 120 126 107 117 149 168 169 172 148 143 142 137 143 143 156 148 145 142 146 144 141 138 142 147 142 150 136 154 169 164 174 168 173 173 164 160 9 60
108 318 6 311 86 80 138 117 134 131 106 134 132 154 169 175 169 171 176 150 150 147 149 136 166 151 144 146 155 151 153 152 160 160 157 161 171 162 197 202 219 208 209 223 224 212 201 212 283
138 59 318 288 8 123 119 124 125 122 134 154 192 142 166 159 158 165 151 151 150 157 153 154 183 160 159 164 166 164 165 172 181 179 184 197 151 251 244 233 232 232 226 234 234 238 235 220 95
38 84 239 223 256 171 141 131 125 126 137 113 112 144 149 159 161 161 164 165 174 169 174 178 182 182 169 177 170 166 178 197 188 195 210 199 192 213 227 243 248 243 243 234 240 237 235 213 171
184 224 257 269 238 261 135 137 143 139 144 149 154 151 152 159 166 171 177 181 180 177 176 176 184 184 178 175 157 178 205 200 209 219 211 220 211 235 219 183 266 31 311 343 326 290 250 210 215
252 237 246 257 204 172 180 127 142 152 162 156 149 156 159 158 171 178 181 185 181 180 180 177 187 180 186 166 171 191 199 211 224 220 208 208 184 178 165 185 205 164 177 248 302 291 284 241 220
214 268 229 255 274 124 200 147 150 145 146 152 154 164 170 169 178 184 180 186 180 179 179 183 183 181 182 175 169 196 201 219 223 229 198 194 181 141 74 115 149 215 213 180 256 204 268 224 220
93 274 272 230 251 235 119 121 115 152 151 158 161 175 183 180 190 183 184 187 188 182 181 178 183 180 172 175 180 201 211 224 225 210 206 182 193 141 159 181 187 191 207 201 235 227 284 204 196
121 323 260 235 102 60 124 115 143 158 158 167 175 182 189 193 193 196 178 186 186 185 173 171 174 171 167 170 206 181 210 213 221 206 137 196 185 180 160 218 194 224 211 200 226 242 214 136 180
110 100 344 357 3 33 92 143 142 152 162 172 181 191 200 199 202 202 182 180 190 179 178 162 168 171 161 182 201 156 206 207 138 171 160 163 167 177 194 209 255 207 180 171 202 169 151 185 203
292 111 283 295 348 93 69 150 312 162 163 167 178 197 212 213 207 211 189 176 177 178 171 162 158 161 167 186 167 172 228 136 189 175 185 197 186 197 173 205 215 178 140 168 155 135 140 174 212
152 118 161 271 279 73 84 60 320 349 221 183 191 194 206 183 198 181 165 163 163 164 167 162 161 159 163 167 155 130 256 211 206 192 217 207 234 206 193 179 144 139 128 133 136 146 188 171 188
192 140 185 200 248 295 139 147 237 273 321 254 206 204 197 175 202 156 142 147 156 161 155 165 154 171 155 154 145 187 223 261 184 218 213 206 183 225 196 120 145 136 153 164 163 158 157 202 140
178 216 142 119 243 237 120 153 169 187 253 287 220 209 202 166 170 171 145 148 160 167 164 167 170 170 175 174 176 161 185 197 184 187 189 219 204 222 167 142 147 148 147 147 165 163 132 168 179
177 177 160 135 175 16 27 348 67 15 36 331 215 211 196 179 180 170 156 165 164 173 166 165 171 175 176 192 128 147 12 359 121 149 189 206 198 206 168 149 159 158 149 170 187 159 137 146 209
326 168 137 145 140 199 141 114 91 175 174 223 245 263 265 193 190 176 160 175 178 176 167 161 167 172 182 181 161 171 183 179 229 193 179 190 203 164 174 165 154 174 175 176 198 164 155 148 187
232 125 153 170 143 104 226 115 222 156 198 214 232 256 249 218 190 187 171 179 183 172 174 167 170 178 181 184 168 180 190 205 192 179 197 199 206 166 180 177 165 176 178 196 200 189 189 185 156
12 33 84 146 109 32 203 148 126 128 162 258 254 241 208 6 204 193 179 176 182 177 173 171 175 186 190 184 181 186 204 204 194 190 195 184 177 184 192 176 175 185 177 184 193 204 180 171 148
65 55 349 41 2 237 33 31 65 337 99 217 250 257 327 305 315 213 181 182 180 180 179 176 180 191 190 193 196 193 202 201 206 219 174 185 171 209 207 196 186 184 192 194 184 185 181 181 158
169 134 157 232 190 255 27 21 296 272 131 336 215 159 202 239 176 248 207 185 184 182 181 183 186 189 192 194 206 198 196 192 194 215 196 211 188 208 188 205 206 209 187 185 193 185 196 190 197
265 180 178 110 40 63 99 320 275 322 344 335 184 120 187 218 225 211 232 188 187 183 186 188 188 192 194 203 197 193 193 189 200 211 205 202 205 208 198 190 207 224 197 195 190 190 212 214 217
137 177 47 27 144 249 52 61 277 1 19 336 327 10 349 315 272 231 230 196 187 187 189 190 191 191 194 194 203 202 198 194 196 204 219 202 225 217 184 187 195 208 207 208 191 185 198 188 231
341 340 66 112 109 141 118 255 220 197 187 209 255 292 340 338 280 54 320 219 183 186 186 192 191 190 193 197 194 193 200 198 193 205 214 222 207 207 188 192 195 203 200 215 196 195 198 202 216
127 348 144 135 196 118 119 246 195 230 199 219 253 259 289 312 280 246 29 323 215 184 185 190 191 190 195 195 193 200 196 193 196 211 216 214 208 208 204 191 200 209 198 207 207 212 204 196 211